[[{"header":{"parameterUnit":"m.s-1","parameterCategory":1,"la1":30.2991,"la2":30.254,"lo1":-89.0895,"lo2":-89.0444,"dx":0.0017,"dy":0.0017,"nx":28,"ny":28,"refTime":"2023-01-13T09:00:00:Z","depth":0,"parameterNumber":2,"parameterNumberName":"U-component_of_WINDS"},"data":[0,0,0,0,0,0,0,0,0,0,0,0,0,0,0,0,0,0,0,0,0,0,0,0,0,0,0,0,0,0,0,0,0,0,0,0,0,0,0,0,0,0,0,0,0,0,0,0,0,0,0,0,0,0,0,0,0,0,2.6509,2.6509,0,2.6513,2.6513,2.6513,2.6477,2.6476,2.6475,2.6474,2.6477,2.6478,2.6479,0,0,0,0,0,0,0,0,0,0,0,0,0,2.6471,2.6472,2.6509,2.6509,2.6509,2.6513,2.6513,2.6513,2.6477,2.6475,2.6474,2.6473,2.6477,2.6478,2.6479,0,0,0,0,0,0,0,0,0,0,0,0,0,2.6482,2.6472,2.6509,2.6491,2.649,2.6513,2.6513,2.6513,2.6477,2.6475,2.6474,2.6473,2.6476,2.6478,2.6479,2.6519,0,0,2.6484,2.6485,0,0,0,0,0,0,0,0,2.6482,2.6484,2.6494,2.6492,2.6491,2.6493,2.6501,2.6515,2.6477,2.6482,2.6474,2.6472,2.6483,2.6484,2.6488,2.6519,2.6519,2.6484,2.6485,2.6486,2.6486,0,0,0,0,0,0,0,2.6481,2.6483,2.651,2.6494,2.6492,2.6484,2.6484,2.6503,2.6491,2.6481,2.6479,2.648,2.6482,2.6487,2.6488,2.6519,2.6484,2.6486,2.6487,2.6487,2.6585,2.6587,0,0,0,0,0,0,2.6483,2.6483,2.651,2.651,2.6483,2.6486,2.6485,2.6493,2.6491,2.6489,2.6481,2.6478,2.6485,2.6486,2.6488,2.6535,2.6486,2.6487,2.6488,2.6583,2.6585,2.6587,0,0,0,0,0,0,2.6482,2.6485,2.651,2.6496,2.6498,2.6488,2.6497,2.6494,2.6499,2.649,2.6488,2.6488,2.6484,2.6486,2.6512,2.6535,2.6488,2.6489,2.6581,2.6584,2.6586,2.663,0,0,0,0,0,0,2.6481,2.6485,2.65,2.6497,2.6499,2.6533,2.6498,2.6496,2.6502,2.6498,2.6496,2.6494,2.6483,2.651,2.6514,2.6536,2.6491,2.6579,2.6582,2.6585,2.6626,2.6633,2.664,0,0,0,0,0,2.648,2.6511,2.6501,2.6504,2.6517,2.6535,2.6536,2.6522,2.6504,2.6518,2.6513,2.6495,2.6532,2.6513,2.6517,2.654,2.6578,2.6582,2.6585,2.6623,2.6632,2.6639,0,0,0,0,0,0,2.6516,2.651,2.6498,2.653,2.6533,2.6529,2.6547,2.6532,2.654,2.6536,2.6519,2.6519,2.6548,2.6547,2.6526,2.6579,2.6552,2.6556,2.6579,2.6587,2.6594,2.6594,2.6492,0,0,0,0,0,2.6528,2.6543,2.6537,2.6565,2.6568,2.6557,2.6564,2.6554,2.6556,2.6557,2.6554,2.6557,2.657,2.6579,2.659,2.6626,2.6626,2.6644,2.6651,2.6657,2.6661,2.6682,2.669,2.66,2.6599,2.6599,0,0,2.6552,2.6551,2.6561,2.6573,2.6574,2.659,2.6558,2.6576,2.6588,2.656,2.6585,2.6583,2.6585,2.6617,2.6631,2.6617,2.6686,2.6661,2.6666,2.6667,2.6686,2.6695,2.6703,2.6602,2.6602,2.6601,0,0,2.6605,2.6605,2.6629,2.6632,2.6635,2.6628,2.6634,2.6633,2.6631,2.6655,2.6635,2.6649,2.6671,2.6674,2.6679,2.6736,2.672,2.674,2.6775,2.6796,2.6803,2.6809,2.683,2.6838,2.6745,2.6745,2.6745,0,2.6635,2.6658,2.6644,2.6664,2.667,2.6646,2.6672,2.6675,2.6681,2.6686,2.667,2.6699,2.6699,2.6732,2.6746,2.675,2.6757,2.674,2.6803,2.6809,2.6815,2.6835,2.6843,2.6747,2.6747,2.6747,2.6746,0,2.6695,2.6712,2.6731,2.6739,2.6748,2.677,2.676,2.677,2.676,2.6755,2.6782,2.6781,2.6793,2.68,2.6789,2.6832,2.6824,2.6806,2.6777,2.6826,2.6845,2.6852,2.6751,2.675,2.6749,2.6749,0,0,2.6769,2.6771,2.6778,2.6782,2.6785,2.6798,2.682,2.6832,2.6842,2.6848,2.6867,2.6887,2.6871,2.6876,2.6866,2.6884,2.6931,2.6864,2.6864,2.6877,2.698,2.6994,2.7003,2.6921,2.6922,2.6923,2.698,0,2.6821,2.6859,2.6848,2.6886,2.6903,2.6882,2.6901,2.6906,2.6902,2.6916,2.6912,2.6928,2.6905,2.6908,2.6925,2.6922,2.6952,2.6917,2.6938,2.6939,2.6938,2.7013,2.7027,2.708,2.6987,2.6989,2.6989,0,2.6886,2.6896,2.6936,2.6939,2.6945,2.6963,2.6974,2.6987,2.6992,2.6989,2.6996,2.6983,2.7006,2.6978,2.701,2.6987,2.6995,2.6995,2.6997,2.6998,2.6967,2.7016,2.7097,2.7106,2.7001,2.7,2.6999,0,2.6937,2.696,2.6988,2.6992,2.6995,2.7008,2.701,2.7014,2.7023,2.7033,2.7038,2.7051,2.7058,2.7068,2.7059,2.7039,2.7093,2.7064,2.7091,2.7091,2.7103,2.7102,2.7186,2.7108,2.7108,2.7107,2.7107,0,2.6996,2.7022,2.7011,2.7028,2.7057,2.7045,2.7074,2.7073,2.7077,2.7094,2.7077,2.7093,2.708,2.7096,2.7089,2.7117,2.712,2.7118,2.7116,2.712,2.7121,2.7125,2.7121,2.7109,2.7109,2.7109,2.7108,0,2.7058,2.7051,2.708,2.7082,2.7083,2.7104,2.7105,2.7122,2.7118,2.714,2.7144,2.7139,2.7157,2.7149,2.7167,2.7162,2.7199,2.7192,2.7198,2.7196,2.7224,2.7222,2.7314,2.7326,2.7239,2.724,2.7241,0,2.7096,2.7115,2.712,2.713,2.7134,2.7151,2.716,2.7149,2.716,2.7169,2.7184,2.7201,2.7213,2.7243,2.724,2.7255,2.7248,2.7279,2.725,2.7254,2.7249,2.7248,2.7251,2.7285,2.7286,2.7287,2.7288,0,2.7165,2.7161,2.7175,2.719,2.7202,2.7212,2.722,2.723,2.722,2.7233,2.7251,2.7261,2.7281,2.7298,2.7311,2.7313,2.73,2.7297,2.7305,2.7309,2.7312,2.7311,2.7214,2.7295,2.7294,2.7294,2.7293,2.7293,2.7216,2.7233,2.724,2.7257,2.7263,2.7272,2.7288,2.7287,2.7302,2.7318,2.7311,2.7333,2.7339,2.7356,2.736,2.7378,2.7365,2.7375,2.7378,2.7381,2.7385,2.7309,2.738,2.738,2.7379,2.7379,2.7379,0,2.7285,2.7288,2.7304,2.7318,2.7332,2.7318,2.7328,2.734,2.736,2.7368,2.7381,2.7403,2.742,2.742,2.7436,2.745,2.7444,2.7455,2.7454,2.7455,2.7395,2.7387,2.7459,2.7459,2.7459,2.7459,2.7459,2.7459,2.7322,2.7351,2.7349,2.7381,2.7385,2.7406,2.7413,2.7422,2.7428,2.7454,2.7469,2.7469,2.7474,2.749,2.7506,2.7505,2.7512,2.7525,2.7523,2.7467,2.7459,2.7451,2.7444,2.7527,2.7527,2.7581,2.7582,2.7582]},{"header":{"parameterUnit":"m.s-1","parameterCategory":1,"la1":30.2991,"la2":30.254,"lo1":-89.0895,"lo2":-89.0444,"dx":0.0017,"dy":0.0017,"nx":28,"ny":28,"refTime":"2023-01-13T09:00:00:Z","depth":0,"parameterNumber":3,"parameterNumberName":"V-component_of_WINDS"},"data":[0,0,0,0,0,0,0,0,0,0,0,0,0,0,0,0,0,0,0,0,0,0,0,0,0,0,0,0,0,0,0,0,0,0,0,0,0,0,0,0,0,0,0,0,0,0,0,0,0,0,0,0,0,0,0,0,0,0,-8.3078,-8.3079,0,-8.3243,-8.3245,-8.3247,-8.3219,-8.3217,-8.3214,-8.3211,-8.3372,-8.3379,-8.3386,0,0,0,0,0,0,0,0,0,0,0,0,0,-8.2732,-8.2738,-8.3077,-8.308,-8.3082,-8.3243,-8.3245,-8.3247,-8.322,-8.3216,-8.3213,-8.321,-8.337,-8.3378,-8.3387,0,0,0,0,0,0,0,0,0,0,0,0,0,-8.2888,-8.274,-8.3077,-8.3088,-8.309,-8.3242,-8.3245,-8.3248,-8.3221,-8.3216,-8.3212,-8.3208,-8.3367,-8.3378,-8.3388,-8.3537,0,0,-8.342,-8.3424,0,0,0,0,0,0,0,0,-8.2879,-8.29,-8.3084,-8.3087,-8.309,-8.3206,-8.3182,-8.3345,-8.3222,-8.3171,-8.3211,-8.3206,-8.332,-8.3334,-8.3374,-8.3545,-8.3552,-8.3421,-8.3427,-8.3431,-8.3434,0,0,0,0,0,0,0,-8.2868,-8.2893,-8.3143,-8.3087,-8.3091,-8.3082,-8.3099,-8.3213,-8.3267,-8.3175,-8.3173,-8.3194,-8.3321,-8.3364,-8.3378,-8.3554,-8.342,-8.343,-8.3436,-8.344,-8.3858,-8.3863,0,0,0,0,0,0,-8.2855,-8.2884,-8.3137,-8.3148,-8.2972,-8.3092,-8.3111,-8.3173,-8.3266,-8.3276,-8.3197,-8.3192,-8.3349,-8.3366,-8.3383,-8.3566,-8.3431,-8.3441,-8.3447,-8.3853,-8.3859,-8.3864,0,0,0,0,0,0,-8.2848,-8.2878,-8.3131,-8.3016,-8.3047,-8.3102,-8.3172,-8.3179,-8.3222,-8.3283,-8.3292,-8.3232,-8.3346,-8.3369,-8.35,-8.3571,-8.3446,-8.3455,-8.3847,-8.3855,-8.3862,-8.3932,0,0,0,0,0,0,-8.2838,-8.2876,-8.2934,-8.3017,-8.3054,-8.3247,-8.3176,-8.3185,-8.3241,-8.3236,-8.3318,-8.3327,-8.3344,-8.3485,-8.3511,-8.3583,-8.3463,-8.3841,-8.3851,-8.3859,-8.3924,-8.3941,-8.3955,0,0,0,0,0,-8.2826,-8.2945,-8.2937,-8.2968,-8.3129,-8.3251,-8.3272,-8.3291,-8.3247,-8.3306,-8.3345,-8.3325,-8.356,-8.3499,-8.3527,-8.3604,-8.3837,-8.3848,-8.3859,-8.3916,-8.3937,-8.3955,0,0,0,0,0,0,-8.2865,-8.2956,-8.2948,-8.3099,-8.3168,-8.3246,-8.3321,-8.3313,-8.3393,-8.3384,-8.3403,-8.3422,-8.3556,-8.3593,-8.3524,-8.3755,-8.3692,-8.3709,-8.3726,-8.3746,-8.3762,-8.375,-8.3472,0,0,0,0,0,-8.2893,-8.2987,-8.306,-8.3185,-8.3221,-8.3265,-8.3319,-8.3329,-8.34,-8.3428,-8.3477,-8.3545,-8.3634,-8.3692,-8.3777,-8.3929,-8.3946,-8.3996,-8.4012,-8.4025,-8.4039,-8.4123,-8.4146,-8.39,-8.39,-8.39,0,0,-8.2947,-8.3009,-8.3067,-8.3195,-8.325,-8.3346,-8.329,-8.3393,-8.3464,-8.3443,-8.3572,-8.361,-8.3686,-8.383,-8.3895,-8.3864,-8.4111,-8.4039,-8.4048,-8.4056,-8.4137,-8.416,-8.4181,-8.3907,-8.3906,-8.3905,0,0,-8.3097,-8.3153,-8.3265,-8.3322,-8.3407,-8.3436,-8.3463,-8.3544,-8.357,-8.37,-8.3687,-8.377,-8.3923,-8.3979,-8.4028,-8.4202,-8.4186,-8.4229,-8.4312,-8.4394,-8.4413,-8.4431,-8.4493,-8.4516,-8.4243,-8.4243,-8.4244,0,-8.3155,-8.3301,-8.3323,-8.3429,-8.3486,-8.3475,-8.3588,-8.3641,-8.3748,-8.3787,-8.3753,-8.3947,-8.3997,-8.4154,-8.4197,-8.4236,-8.4267,-8.4219,-8.4409,-8.4427,-8.4443,-8.4503,-8.4527,-8.4248,-8.4248,-8.4247,-8.4247,0,-8.3367,-8.3469,-8.3549,-8.3657,-8.3723,-8.3831,-8.3868,-8.3932,-8.3936,-8.3969,-8.4101,-8.4163,-8.4261,-8.4299,-8.4302,-8.4457,-8.4435,-8.4405,-8.4342,-8.4471,-8.4528,-8.4551,-8.4255,-8.4253,-8.4252,-8.4251,0,0,-8.3545,-8.3667,-8.3696,-8.3745,-8.384,-8.3917,-8.4025,-8.4125,-8.418,-8.4254,-8.4345,-8.4476,-8.445,-8.4505,-8.4515,-8.4587,-8.4722,-8.4547,-8.4549,-8.4578,-8.4896,-8.4919,-8.4945,-8.4713,-8.4717,-8.4721,-8.489,0,-8.3704,-8.3899,-8.3923,-8.4095,-8.4189,-8.4182,-8.4276,-8.4343,-8.4376,-8.446,-8.4495,-8.4589,-8.4546,-8.458,-8.4651,-8.4691,-8.4786,-8.4679,-8.4796,-8.48,-8.4777,-8.4975,-8.4998,-8.5155,-8.4912,-8.4916,-8.4919,0,-8.3916,-8.4001,-8.4183,-8.4267,-8.4307,-8.4392,-8.4486,-8.4566,-8.4642,-8.4661,-8.4725,-8.4727,-8.4837,-8.477,-8.4922,-8.4848,-8.4898,-8.4925,-8.4931,-8.4942,-8.4867,-8.4992,-8.5206,-8.523,-8.4954,-8.4951,-8.4948,0,-8.4029,-8.4188,-8.4318,-8.4361,-8.4461,-8.4521,-8.4565,-8.4637,-8.4696,-8.4778,-8.4816,-8.4908,-8.4958,-8.5029,-8.5055,-8.5004,-8.5206,-8.5141,-8.5224,-8.5223,-8.5266,-8.5263,-8.5492,-8.5298,-8.5298,-8.5297,-8.5297,0,-8.4204,-8.4316,-8.4371,-8.4451,-8.4576,-8.4602,-8.4724,-8.4765,-8.483,-8.4917,-8.4915,-8.4996,-8.5025,-8.5111,-8.5131,-8.5254,-8.5276,-8.5294,-8.5298,-8.5295,-8.5293,-8.5327,-8.5317,-8.5303,-8.5302,-8.5301,-8.53,0,-8.435,-8.4392,-8.4534,-8.4619,-8.4642,-8.4731,-8.4803,-8.4879,-8.4913,-8.5023,-8.505,-8.5102,-8.5203,-8.5236,-8.5356,-8.537,-8.5514,-8.5508,-8.549,-8.549,-8.5572,-8.5564,-8.583,-8.5867,-8.5649,-8.5651,-8.5653,0,-8.446,-8.4546,-8.4642,-8.4702,-8.4749,-8.4845,-8.4906,-8.4936,-8.4999,-8.5094,-8.5159,-8.526,-8.5342,-8.5503,-8.555,-8.5642,-8.5639,-8.5726,-8.5652,-8.5647,-8.5641,-8.5636,-8.5644,-8.5739,-8.5742,-8.5744,-8.5745,0,-8.465,-8.4667,-8.4757,-8.4856,-8.493,-8.5008,-8.5083,-8.5131,-8.5171,-8.5243,-8.5348,-8.5412,-8.5537,-8.5637,-8.5732,-8.5775,-8.5767,-8.5768,-8.5792,-8.5789,-8.5775,-8.5785,-8.5528,-8.5762,-8.576,-8.5759,-8.5758,-8.5757,-8.4781,-8.4859,-8.4939,-8.504,-8.5101,-8.5172,-8.5249,-8.5294,-8.5383,-8.549,-8.5501,-8.5614,-8.5689,-8.5816,-8.5864,-8.5952,-8.5927,-8.5961,-8.597,-8.5979,-8.5985,-8.5762,-8.5969,-8.5968,-8.5968,-8.5967,-8.5967,0,-8.4972,-8.5024,-8.5117,-8.5225,-8.5304,-8.5293,-8.5376,-8.5443,-8.5544,-8.5615,-8.5698,-8.5819,-8.5916,-8.5972,-8.6069,-8.6129,-8.6127,-8.6153,-8.6149,-8.6159,-8.6002,-8.5971,-8.6153,-8.6153,-8.6153,-8.6153,-8.6153,-8.6152,-8.508,-8.5212,-8.5239,-8.5399,-8.545,-8.5564,-8.5612,-8.5678,-8.5735,-8.5872,-8.5954,-8.5992,-8.6057,-8.6159,-8.6248,-8.6262,-8.6297,-8.6326,-8.6337,-8.6189,-8.617,-8.6152,-8.6123,-8.6333,-8.6334,-8.6487,-8.6488,-8.6489]}]]